Location: Rancho Del Sol Observatory
(38.7214°N, 120.6350°W)
Time: 22:27:37
(UTC-08:00)

Courier 1B - Pass Details

Date: 17 January 2020
Orbit: 962 x 1209 km, 28.3° (Epoch: 27 February)

Event Time Altitude Azimuth Distance (km) Brightness Sun altitude
Exits shadow 05:46:56 - 229° (SW) 3,685 10.2 -17.6°
Reaches altitude 10° 05:48:55 10° 222° (SW) 3,112 9.8 -17.3°
Maximum altitude 05:55:28 30° 165° (SSE) 2,004 9.4 -16.0°
Drops below altitude 10° 06:02:03 10° 107° (ESE) 3,133 11.6 -14.8°
Sets 06:05:15 0° 98° (E) 4,083 12.6 -14.2°
